Zamboanga, Philippines

1:43 PM +08 on February 21, 2018 (GMT +0800)
Zamboanga International

Weather History for RPMZ - November, 2012

Change the Weather History Date:

Sunday, November 11, 2012

  Actual Average Record
Temperature  
Mean Temperature 80 °F -  
Max Temperature 84 °F 89 °F - ()
Min Temperature 77 °F 74 °F - ()
Cooling Degree Days 16    
Growing Degree Days 30 (Base 50)    
Moisture  
Dew Point 77 °F    
Average Humidity 89    
Maximum Humidity 94    
Minimum Humidity 80    
Precipitation  
Precipitation 0.39 in 0.11 in - ()
Sea Level Pressure  
Sea Level Pressure 29.78 in    
Wind  
Wind Speed 1 mph ()    
Max Wind Speed 12 mph    
Max Gust Speed -    
Visibility 6.0 miles    
Events Rain , Thunderstorm    
T = Trace of Precipitation, MM = Missing Value Source: Averaged Metar Reports

Daily Weather History Graph

Daily Weather History Graph

Search for Another Location

Airport or City:

Trip Planner

Search our weather history database for the weather conditions in past years. The results will help you decide how hot, cold, wet, or windy it might be!

Date:

Astronomy

Nov. 11, 2012 Rise Set
Actual Time 5:40 AM +08 5:30 PM +08
Civil Twilight 5:19 AM +08 5:52 PM +08
Nautical Twilight 4:53 AM +08 6:17 PM +08
Astronomical Twilight 4:28 AM +08 6:42 PM +08
Moon 2:47 AM +08 (11/11) 3:05 PM +08 (11/11)
Length of Visible Light 12h 33m
Length of Day
11h 49m
Waning Crescent, 11% of the Moon is Illuminated
Nov 11
Waning Crescent
Nov 14
New
Nov 20
First Quarter
Nov 28
Full
Dec 6
Last Quarter

Hourly Weather History & Observations

Time (+08) Temp. Heat Index Dew Point Humidity Pressure Visibility Wind Dir Wind Speed Gust Speed Precip Events Conditions
2:00 AM 79 °F - 76 °F 89% 29.78 in 6 mi Calm Calm - -   Haze
2:00 AM 78.8 °F - 77.0 °F 94% 29.77 in 6.2 mi Calm Calm - N/A   Mostly Cloudy
5:00 AM 78 °F - 75 °F 88% 29.78 in 6 mi Calm Calm - -   Haze
6:00 AM 78.8 °F - 75.2 °F 89% 29.77 in 6.2 mi Calm Calm - N/A   Overcast
7:00 AM 78.8 °F - 75.2 °F 89% 29.80 in 6.2 mi Calm Calm - N/A   Mostly Cloudy
8:00 AM 80 °F - 77 °F 89% 29.81 in 6 mi Calm Calm - -   Haze
8:00 AM 78.8 °F - 77.0 °F 94% 29.83 in 6.2 mi Calm Calm - N/A   Mostly Cloudy
9:00 AM 80.6 °F 87.1 °F 77.0 °F 89% 29.83 in 6.2 mi Calm Calm - N/A   Mostly Cloudy
10:00 AM 82.4 °F 92.4 °F 78.8 °F 89% 29.83 in 6.2 mi Calm Calm - N/A   Mostly Cloudy
11:00 AM 84 °F - 79 °F 80% 29.80 in 6 mi South 4.5 mph - -   Overcast
11:00 AM 84.2 °F 96.1 °F 78.8 °F 84% 29.80 in 5.6 mi South 4.6 mph - N/A   Overcast
12:00 PM 80.6 °F 87.1 °F 77.0 °F 89% 29.80 in 5.6 mi West 11.5 mph - N/A Rain , Thunderstorm Light Rain Showers
1:00 PM 78.8 °F - 77.0 °F 94% 29.77 in 5.6 mi SW 4.6 mph - N/A Rain Light Rain
2:00 PM 80 °F - 77 °F 89% 29.75 in 6 mi West 4.5 mph - -   Partly Cloudy
2:00 PM 80.6 °F 87.1 °F 77.0 °F 89% 29.74 in 6.2 mi West 4.6 mph - N/A   Mostly Cloudy
3:00 PM 82.4 °F 92.4 °F 78.8 °F 89% 29.74 in 6.2 mi Calm Calm - N/A   Mostly Cloudy
4:00 PM 82.4 °F 92.4 °F 78.8 °F 89% 29.74 in 6.2 mi SW 4.6 mph - N/A   Overcast
5:00 PM 81 °F - 77 °F 85% 29.74 in 6 mi Calm Calm - -   Overcast
5:00 PM 80.6 °F 87.1 °F 77.0 °F 89% 29.74 in 6.2 mi Calm Calm - N/A   Overcast
6:00 PM 78.8 °F - 77.0 °F 94% 29.74 in 5.6 mi Calm Calm - N/A Rain Light Rain Showers
7:00 PM 78.8 °F - 77.0 °F 94% 29.74 in 5.6 mi Calm Calm - N/A Rain Light Rain Showers
8:00 PM 79 °F - 77 °F 92% 29.78 in 6 mi Calm Calm - -   Partly Cloudy
8:00 PM 78.8 °F - 77.0 °F 94% 29.77 in 6.2 mi Calm Calm - N/A   Overcast
11:00 PM 78 °F - 75 °F 87% 29.81 in 6 mi ENE 4.5 mph - - Rain Light Rain Showers
11:00 PM 78.8 °F - 75.2 °F 89% 29.80 in 6.2 mi ENE 4.6 mph - N/A Rain Light Rain Showers